Jefferson, NC

9:00 AM EDT on March 27, 2017 (GMT -0400)
Ashe County

Weather History for KGEV - March, 2015

Change the Weather History Date:

Wednesday, March 4, 2015

  Actual Average Record
Temperature  
Mean Temperature 58 °F -  
Max Temperature 70 °F 53 °F 77 °F (1976)
Min Temperature 46 °F 31 °F 10 °F (2002)
Degree Days  
Heating Degree Days 7    
Growing Degree Days 8 (Base 50)    
Moisture  
Dew Point 49 °F    
Average Humidity 70    
Maximum Humidity 99    
Minimum Humidity 41    
Precipitation  
Precipitation 0.00 in - - ()
Sea Level Pressure  
Sea Level Pressure 29.90 in    
Wind  
Wind Speed 5 mph (South)    
Max Wind Speed 15 mph    
Max Gust Speed 26 mph    
Visibility 10 miles    
Events Rain    
Averages and records for this station are not official NWS values.
T = Trace of Precipitation, MM = Missing Value Source: NWS Daily Summary

Daily Weather History Graph

Daily Weather History Graph

Search for Another Location

Airport or City:

Trip Planner

Search our weather history database for the weather conditions in past years. The results will help you decide how hot, cold, wet, or windy it might be!

Date:

Astronomy

Mar. 04, 2015 Rise Set
Actual Time 6:52 AM EST 6:22 PM EST
Civil Twilight 6:26 AM EST 6:48 PM EST
Nautical Twilight 5:56 AM EST 7:18 PM EST
Astronomical Twilight 5:26 AM EST 7:48 PM EST
Moon 5:40 PM EST (3/4) 6:04 AM EST (3/4)
Length of Visible Light 12h 22m
Length of Day
11h 30m
Waxing Gibbous, 99% of the Moon is Illuminated
Mar 4
Waxing Gibbous
Mar 5
Full
Mar 13
Last Quarter
Mar 20
New
Mar 27
First Quarter

Hourly Weather History & Observations

Time (EST) Temp. Dew Point Humidity Pressure Visibility Wind Dir Wind Speed Gust Speed Precip Events Conditions
12:15 AM 46.8 °F 46.6 °F 99% 29.97 in 7.0 mi SSE 3.5 mph - N/A   Overcast
12:35 AM 50.7 °F 50.4 °F 99% 29.96 in 10.0 mi South 8.1 mph - N/A   Overcast
12:55 AM 56.7 °F 51.1 °F 82% 29.96 in 10.0 mi SSW 8.1 mph - N/A   Overcast
1:15 AM 57.6 °F 50.7 °F 78% 29.96 in 10.0 mi South 8.1 mph 21.9 mph N/A   Overcast
1:35 AM 57.2 °F 50.9 °F 79% 29.95 in 10.0 mi South 3.5 mph - N/A   Overcast
1:55 AM 54.9 °F 49.5 °F 82% 29.95 in 10.0 mi South 8.1 mph - N/A   Overcast
2:15 AM 54.7 °F 48.7 °F 80% 29.95 in 10.0 mi SSE 4.6 mph - N/A   Overcast
2:35 AM 55.9 °F 47.8 °F 74% 29.94 in 10.0 mi South 5.8 mph - N/A   Overcast
2:55 AM 54.5 °F 47.7 °F 78% 29.93 in 10.0 mi SSE 6.9 mph - N/A   Overcast
3:15 AM 53.6 °F 47.3 °F 79% 29.92 in 10.0 mi SSE 5.8 mph - N/A   Overcast
3:35 AM 53.4 °F 47.1 °F 79% 29.92 in 10.0 mi South 8.1 mph - N/A   Overcast
3:55 AM 54.5 °F 47.7 °F 78% 29.91 in 10.0 mi South 4.6 mph - N/A   Mostly Cloudy
4:15 AM 54.1 °F 47.5 °F 78% 29.91 in 10.0 mi SSE 4.6 mph - N/A   Mostly Cloudy
4:35 AM 52.3 °F 47.8 °F 85% 29.91 in 10.0 mi South 6.9 mph - N/A   Overcast
4:55 AM 52.5 °F 48.4 °F 86% 29.91 in 10.0 mi South 4.6 mph - N/A   Overcast
5:15 AM 53.6 °F 49.1 °F 85% 29.92 in 10.0 mi SSE 4.6 mph - N/A   Overcast
5:35 AM 54.5 °F 48.6 °F 80% 29.92 in 10.0 mi SSE 3.5 mph - N/A   Overcast
5:55 AM 54.7 °F 48.4 °F 79% 29.93 in 10.0 mi SSE 3.5 mph - N/A   Overcast
6:15 AM 55.6 °F 48.2 °F 76% 29.93 in 10.0 mi SSW 3.5 mph - N/A   Overcast
6:35 AM 55.8 °F 48.0 °F 75% 29.91 in 10.0 mi Calm Calm - N/A   Overcast
6:55 AM 55.6 °F 48.2 °F 76% 29.92 in 10.0 mi Calm Calm - N/A   Overcast
7:15 AM 55.4 °F 48.4 °F 77% 29.92 in 10.0 mi South 5.8 mph - N/A   Overcast
7:35 AM 55.6 °F 48.7 °F 78% 29.93 in 10.0 mi SSE 3.5 mph - N/A   Overcast
7:55 AM 55.6 °F 48.6 °F 77% 29.93 in 10.0 mi Calm Calm - N/A   Overcast
8:15 AM 56.5 °F 48.4 °F 74% 29.93 in 10.0 mi Calm Calm - N/A   Overcast
8:35 AM 56.3 °F 48.7 °F 76% 29.94 in 10.0 mi Calm Calm - N/A   Overcast
8:55 AM 58.8 °F 48.9 °F 70% 29.95 in 10.0 mi Calm Calm - N/A   Overcast
9:15 AM 60.6 °F 50.4 °F 69% 29.96 in 10.0 mi West 10.4 mph 19.6 mph N/A   Drizzle
9:35 AM 60.3 °F 51.1 °F 72% 29.95 in 10.0 mi West 13.8 mph 23.0 mph N/A Rain Light Rain
9:55 AM 61.0 °F 50.4 °F 68% 29.95 in 10.0 mi West 10.4 mph 24.2 mph N/A Rain Light Rain
10:15 AM 63.0 °F 49.3 °F 61% 29.95 in 10.0 mi WSW 15.0 mph 26.5 mph N/A   Overcast
10:35 AM 64.4 °F 48.7 °F 57% 29.93 in 10.0 mi WSW 8.1 mph 19.6 mph N/A   Mostly Cloudy
10:55 AM 65.7 °F 48.0 °F 53% 29.92 in 10.0 mi WSW 8.1 mph 16.1 mph N/A   Mostly Cloudy
11:15 AM 66.6 °F 47.3 °F 50% 29.91 in 10.0 mi WSW 9.2 mph 16.1 mph N/A   Overcast
11:35 AM 67.8 °F 46.6 °F 46% 29.91 in 10.0 mi SW 11.5 mph 18.4 mph N/A   Overcast
11:55 AM 70.2 °F 46.0 °F 42% 29.90 in 10.0 mi SSW 6.9 mph - N/A   Overcast
12:15 PM 70.0 °F 47.3 °F 44% 29.90 in 10.0 mi SSE 6.9 mph - N/A   Overcast
12:35 PM 69.6 °F 48.2 °F 46% 29.89 in 10.0 mi SSE 5.8 mph - N/A   Overcast
12:55 PM 68.5 °F 47.8 °F 48% 29.89 in 10.0 mi South 3.5 mph - N/A   Overcast
1:15 PM 68.4 °F 47.7 °F 48% 29.88 in 10.0 mi SSW 5.8 mph - N/A   Overcast
1:35 PM 68.0 °F 47.8 °F 48% 29.88 in 10.0 mi SSW 3.5 mph - N/A   Mostly Cloudy
1:55 PM 67.5 °F 48.4 °F 50% 29.87 in 10.0 mi Calm Calm - N/A   Overcast
2:15 PM 68.2 °F 48.6 °F 49% 29.87 in 10.0 mi SW 4.6 mph - N/A   Overcast
2:35 PM 69.1 °F 48.6 °F 48% 29.86 in 10.0 mi West 3.5 mph - N/A   Overcast
2:55 PM 70.5 °F 45.5 °F 41% 29.86 in 10.0 mi West 10.4 mph 17.3 mph N/A   Mostly Cloudy
3:15 PM 70.7 °F 45.7 °F 41% 29.86 in 10.0 mi WSW 4.6 mph 20.7 mph N/A   Scattered Clouds
3:35 PM 66.6 °F 51.8 °F 59% 29.86 in 10.0 mi SSE 3.5 mph - N/A   Scattered Clouds
3:55 PM 66.6 °F 51.8 °F 59% 29.85 in 10.0 mi ESE 5.8 mph - N/A   Overcast
4:15 PM 65.3 °F 51.3 °F 60% 29.84 in 10.0 mi SE 6.9 mph - N/A   Overcast
4:55 PM 64.4 °F 50.9 °F 62% 29.84 in 10.0 mi SE 3.5 mph - N/A   Overcast
5:15 PM 64.8 °F 50.0 °F 59% 29.83 in 10.0 mi SSE 5.8 mph - N/A   Overcast
5:35 PM 63.1 °F 50.2 °F 63% 29.83 in 10.0 mi South 8.1 mph 17.3 mph N/A   Mostly Cloudy
5:55 PM 62.1 °F 50.7 °F 66% 29.84 in 10.0 mi SSE 8.1 mph - N/A   Mostly Cloudy
6:15 PM 61.3 °F 50.9 °F 69% 29.84 in 10.0 mi SSE 8.1 mph - N/A   Overcast
6:35 PM 60.8 °F 51.4 °F 71% 29.86 in 10.0 mi South 8.1 mph - N/A   Overcast
6:55 PM 59.9 °F 51.4 °F 74% 29.85 in 10.0 mi SSE 9.2 mph - N/A   Overcast
7:15 PM 59.2 °F 51.8 °F 77% 29.85 in 10.0 mi South 6.9 mph - N/A   Mostly Cloudy
7:35 PM 58.5 °F 51.8 °F 79% 29.87 in 10.0 mi South 8.1 mph - N/A   Mostly Cloudy
7:55 PM 58.3 °F 51.3 °F 77% 29.87 in 10.0 mi SSE 5.8 mph - N/A   Overcast
8:15 PM 57.7 °F 50.7 °F 77% 29.87 in 10.0 mi SSE 5.8 mph - N/A   Overcast
8:35 PM 57.4 °F 50.5 °F 78% 29.87 in 10.0 mi SSE 4.6 mph - N/A   Overcast
8:55 PM 56.3 °F 50.2 °F 80% 29.86 in 10.0 mi SSE 4.6 mph - N/A   Scattered Clouds
9:15 PM 56.3 °F 50.0 °F 79% 29.87 in 10.0 mi South 5.8 mph - N/A   Mostly Cloudy
9:55 PM 56.7 °F 49.8 °F 78% 29.87 in 10.0 mi South 5.8 mph - N/A   Mostly Cloudy
10:15 PM 56.7 °F 50.2 °F 79% 29.88 in 10.0 mi South 4.6 mph - N/A   Overcast
10:35 PM 57.6 °F 50.9 °F 78% 29.89 in 10.0 mi Calm Calm - N/A   Overcast
10:55 PM 57.6 °F 51.1 °F 79% 29.89 in 10.0 mi Calm Calm - N/A   Overcast
11:15 PM 57.4 °F 51.3 °F 80% 29.89 in 10.0 mi Calm Calm - N/A   Overcast
11:40 PM 58.1 °F 51.6 °F 79% 29.89 in 10.0 mi Calm Calm - N/A   Overcast
11:55 PM 57.7 °F 51.3 °F 79% 29.88 in 10.0 mi Calm Calm - N/A   Overcast